Regional Weather Roundup
Issued by NWS

Home | Current Version | Previous Version | Graphics & Text | Print | Product List | Glossary On
Versions: 1 2 3 4 5 6 7 8 9 10 11 12 13 14 15 16 17 18 19 20 21 22 23 24 25 26 27 28 29 30 31 32 33 34 35 36 37 38 39 40 41 42 43 44 45 46 47 48 49 50
000
ASUS43 KIND 191709
RWRIN

WEATHER ROUNDUP FOR INDIANA
NATIONAL WEATHER SERVICE INDIANAPOLIS IN
1200 PM EST SUN NOV 19 2017

NOTE: "FAIR" INDICATES FEW OR NO CLOUDS BELOW 12,000 FEET WITH NO
SIGNIFICANT WEATHER AND/OR OBSTRUCTIONS TO VISIBILITY.

* - STATION DOES NOT REPORT WEATHER SUCH AS PRECIPITATION OR FOG.

+ - STATION NOT QUALITY CONTROLLED BY THE NATIONAL WEATHER SERVICE.
    USE DATA WITH CAUTION...ESPECIALLY DEWPOINT AND RELATIVE
    HUMIDITY OBSERVATIONS.

INZ001>003-010>013-019-020-191800-
NORTHWEST INDIANA

CITY           SKY/WX    TMP DP  RH WIND       PRES   REMARKS
GARY /AIRPORT/ PTSUNNY   34  21  60 W17       30.05S WCI  23
KNOX *+        PTSUNNY   32  27  80 W12G20    30.02S WCI  23
LA PORTE +     CLOUDY    32  22  66 W15G22    30.02S WCI  22
MICHIGAN CITY+ CLOUDY    32  21  64 W10G20    30.03R WCI  24
MONTICELLO +   CLOUDY    31  24  72 W12       30.05S WCI  22
RENSSELAER +   CLOUDY    32  21  64 W13G18    30.06S WCI  22
VALPARAISO     SUNNY     36  22  56 W14       30.03S WCI  27

$$

LMZ046-743>745-191800-
SOUTHERN LAKE MICHIGAN

STATION/POSITION TIME  TEMP    WIND        PRES    WAVE
                       AIR SEA DIR/SP/G            HT
                 (UTC) (F)     (DEG/KT/KT) (MB)    (FT)
BURNS HARBOR     1640   33     280/ 14/ 19 1017.6R
MICHIGAN CITY    1640   31     270/ 20/ 23   N/A

$$

INZ004-005-014>016-021>024-191800-
NORTH CENTRAL INDIANA

CITY           SKY/WX    TMP DP  RH WIND       PRES   REMARKS
GOSHEN         CLOUDY    34  22  61 W21G28    29.97R WCI  22
LOGANSPORT +   CLOUDY    32  23  69 W14G20    30.05S WCI  22
PERU/GRISSOM   CLOUDY    34  25  69 W15       30.02S WCI  24
ROCHESTER +    CLOUDY    36  27  69 W13       30.01F WCI  27
SOUTH BEND     CLOUDY    32  24  72 W9G17     29.99S WCI  24
WARSAW +       CLOUDY    34  25  69 W15G23    29.99R WCI  24

$$

INZ006>009-017-018-025>027-191800-
NORTHEAST INDIANA

CITY           SKY/WX    TMP DP  RH WIND       PRES   REMARKS
AUBURN +       CLOUDY    36  28  75 W13G24    29.96R WCI  27
FORT WAYNE     CLOUDY    36  26  67 W18       29.98R WCI  26
HUNTINGTON +   CLOUDY    34  26  73 W14G20    29.99R WCI  25
KENDALLVILLE + CLOUDY    33  27  80 W18G24    29.94R WCI  22

$$

INZ028-029-035-036-043>045-051>053-191800-
WEST CENTRAL INDIANA

CITY           SKY/WX    TMP DP  RH WIND       PRES   REMARKS
CRAWFORDSVL +  CLOUDY    27  23  86 W15       30.07R WCI  15
GREENCASTLE +  CLOUDY    32  21  64 W8        30.10R WCI  25
LAFAYETTE      CLOUDY    30  23  75 W9        30.08R WCI  22
TERRE HAUTE    CLOUDY    32  22  66 W14       30.14R WCI  22

$$

INZ030>032-037>040-046>048-054>057-064-065-191800-
CENTRAL INDIANA

CITY           SKY/WX    TMP DP  RH WIND       PRES   REMARKS
CP ATTERBURY + CLOUDY    36  27  69 W12G18    30.08F WCI  27
COLUMBUS       PTSUNNY   36  25  64 NW12      30.08S WCI  27
FISHERS *+     CLOUDY    32  27  80 W14G21    30.06  WCI  22
FRANKFORT +    CLOUDY    33  26  78 W16       30.08R WCI  22
GREENWOOD *+   CLOUDY    38  27  65 W10G20    30.06F WCI  30
INDIANAPOLIS   CLOUDY    33  24  69 W16       30.07S WCI  23
-EAGLE CREEK   CLOUDY    33  23  66 W12       30.06S WCI  24
KOKOMO +       CLOUDY    32  25  75 W18       30.04R WCI  20
MARION +       CLOUDY    32  28  83 W22       30.03R FOG     WCI  20
MT COMFORT *+  CLOUDY    34  28  80 W16       30.05S WCI  23
SHELBYVILLE    CLOUDY    36  26  67 W15       30.05S WCI  27
ZIONSVILLE +   CLOUDY    30  24  77 W13G21    30.07R WCI  20

$$

INZ033-034-041-042-049-050-058-059-191800-
EAST CENTRAL INDIANA

CITY           SKY/WX    TMP DP  RH WIND       PRES   REMARKS
MUNCIE         CLOUDY    35  27  72 W20       30.01S WCI  24
RICHMOND +     CLOUDY    32  30  93 W16       30.00F WCI  21

$$

INZ060-061-067>069-081>083-085>088-191800-
SOUTHWEST INDIANA

CITY           SKY/WX    TMP DP  RH WIND       PRES   REMARKS
EVANSVILLE     MOSUNNY   37  25  61 NW8G20    30.19S WCI  31
HUNTINGBURG +  CLOUDY    35  25  66 NW12      30.17R WCI  27
WASHINGTON +   CLOUDY    34  24  67 W9        30.15S WCI  27

$$

INZ062-063-066-070>080-084-089>092-191800-
SOUTH CENTRAL AND SOUTHEAST INDIANA

CITY           SKY/WX    TMP DP  RH WIND       PRES   REMARKS
BEDFORD +      PTSUNNY   36  25  64 W9        30.11S WCI  29
BLOOMINGTON    CLOUDY    34  23  64 W13G18    30.09S WCI  25
MADISON *+     CLOUDY    36  28  75 W10G16    30.10S WCI  28
NORTH VERNON + CLOUDY    34  27  75 W10       30.08F WCI  26
SEYMOUR +      CLOUDY    37  28  70 W17       30.10S WCI  28

$$




USA.gov is the U.S. government's official web portal to all federal, state and local government web resources and services.